Location: Unspecified
(0.0000°N, 0.0000°E)
Time: 13:23:25
(UTC+00:00)

ISS - Pass Details

Date: 19 September 2019
Orbit: 411 x 421 km, 51.6° (Epoch: 18 September)

Event Time Altitude Azimuth Distance (km) Brightness Sun altitude
Exits shadow 05:11:44 - 319° (NW) 1,851 -0.9 -10.6°
Reaches altitude 10° 05:12:38 10° 318° (NW) 1,482 -1.4 -10.3°
Maximum altitude 05:15:56 67° 235° (SW) 454 -3.8 -9.5°
Drops below altitude 10° 05:19:16 10° 151° (SSE) 1,494 -0.6 -8.7°
Sets 05:21:23 0° 149° (SSE) 2,361 0.5 -8.1°
